Temperature
2 3 3 3 4 3 3 3 4 4 4 5 5 5 6 6 7 7 7 7 7 7 7 7 7 6 6 6 6 5 5 5 5 5 4 4 4 4 4 3 3 3 3 3
2 3 3 3 3 3 3 4 3 4 4 5 5 5 5 6 6 6 7 7 7 7 7 7 6 6 6 6 5 5 5 5 4 4 4 4 4 3 3 3 3 3 2 2
2 2 3 4 4 3 3 3 3 4 5 5 4 4 5 6 6 6 7 7 6 6 6 6 6 6 5 5 5 5 5 4 4 4 4 3 3 3 3 3 2 2 2 2
2 3 4 6 5 4 4 4 3 4 4 4 4 5 6 7 7 7 6 6 6 6 6 6 6 5 5 5 5 4 4 4 4 3 3 3 3 3 2 2 2 2 2 2
2 2 3 4 5 4 4 4 4 3 4 4 5 4 5 6 6 6 6 6 6 6 5 5 5 5 5 4 4 4 4 4 3 3 3 3 2 2 2 2 2 2 1 1
1 2 3 5 5 5 4 4 5 4 4 4 4 3 4 6 6 6 6 5 5 5 5 5 5 5 4 4 4 4 3 3 3 2 2 2 2 2 1 1 1 1 1 1
1 1 2 4 4 5 5 5 6 5 5 4 3 4 5 5 5 5 5 5 5 5 4 4 4 4 4 4 3 3 3 2 2 2 2 2 1 1 1 1 1 1 1 1
1 1 3 4 3 4 4 5 5 5 5 5 5 5 4 4 4 4 4 4 4 4 4 4 4 3 3 3 3 2 2 2 2 2 1 1 1 1 1 0 0 0 0 0
2 3 4 4 4 5 5 5 5 5 5 5 4 4 4 4 4 4 4 4 4 3 3 3 3 3 3 3 2 2 2 2 2 1 1 1 1 0 0 0 -0 -0 -0 0
0 1 3 4 5 5 5 5 5 4 4 4 4 4 3 3 3 3 3 3 3 3 3 3 3 2 2 2 2 1 1 1 1 1 1 0 0 0 -0 -0 -0 -0 -0 -0
-0 1 2 4 5 5 5 4 4 4 4 3 3 3 3 3 3 3 3 3 3 2 2 2 2 2 2 2 1 1 1 1 1 1 0 0 -0 -0 -0 -1 -1 -1 -1 -1
2 3 2 4 5 4 4 4 3 3 3 3 2 2 2 2 2 2 2 2 2 2 2 2 2 2 2 1 1 1 1 0 0 0 -0 -0 -0 -0 -1 -1 -1 -1 -1 -2
4 4 4 4 4 4 3 3 3 2 2 2 2 2 2 2 2 2 2 2 2 2 2 2 1 1 1 1 1 0 0 0 -0 -0 -0 -0 -1 -1 -1 -1 -1 -1 -1 -2
3 3 3 3 3 3 2 2 2 2 2 2 2 2 1 2 1 1 2 1 1 1 1 1 1 1 1 1 0 0 0 -0 -0 -1 -1 -1 -1 -1 -1 -1 -1 -1 -1 -2
2 2 2 2 2 2 2 1 1 1 1 1 1 1 1 1 1 1 1 1 1 1 1 1 1 1 1 0 0 0 -0 -0 -1 -1 -1 -1 -1 -1 -2 -2 -2 -2 -2 -2
2 1 1 1 1 1 1 1 1 1 1 1 1 1 1 1 1 1 1 0 0 0 0 0 1 1 0 0 -0 -0 -0 -1 -1 -1 -1 -1 -2 -2 -2 -2 -2 -2 -2 -2
1 0 0 0 1 1 1 1 0 0 0 1 1 0 0 0 0 0 0 -0 -0 -0 -0 -0 0 0 -0 -0 -0 -1 -1 -1 -1 -2 -2 -2 -2 -2 -2 -2 -2 -2 -2 -3
1 0 0 0 0 0 0 0 0 0 0 0 0 -0 -0 -0 -0 -0 -0 -0 -1 -0 -0 -0 -0 -0 -1 -1 -1 -1 -1 -1 -2 -2 -2 -2 -2 -2 -2 -2 -3 -3 -3 -3
-0 -0 0 0 0 -0 -0 -0 -0 -0 -0 -0 -0 -0 -0 -0 -1 -1 -1 -1 -1 -1 -1 -1 -1 -1 -1 -1 -1 -1 -2 -2 -2 -2 -2 -2 -2 -2 -2 -3 -3 -3 -3 -3
-0 -0 -0 -0 -0 -0 -0 -0 -0 -1 -0 -1 -1 -1 -1 -1 -1 -1 -1 -1 -1 -1 -1 -1 -1 -1 -1 -1 -2 -2 -2 -2 -2 -2 -2 -2 -3 -3 -3 -3 -3 -3 -3 -3
-1 -1 -1 -1 -1 -1 -1 -1 -1 -1 -1 -1 -1 -1 -1 -1 -1 -1 -1 -1 -1 -1 -2 -2 -2 -2 -2 -2 -2 -2 -2 -2 -2 -3 -3 -3 -3 -3 -3 -3 -3 -3 -4 -4
-1 -1 -1 -1 -1 -1 -1 -1 -1 -1 -1 -1 -1 -1 -1 -1 -1 -1 -1 -2 -2 -2 -2 -2 -2 -2 -2 -2 -2 -2 -3 -3 -3 -3 -3 -3 -3 -3 -3 -3 -4 -4 -4 -4
-1 -1 -1 -1 -1 -1 -1 -1 -1 -1 -1 -1 -1 -1 -2 -2 -2 -2 -2 -2 -2 -2 -2 -2 -2 -2 -2 -2 -3 -3 -3 -3 -3 -3 -3 -3 -3 -3 -4 -4 -4 -4 -4 -4
-1 -2 -2 -2 -2 -2 -2 -1 -2 -2 -2 -2 -2 -2 -2 -2 -2 -2 -2 -2 -2 -2 -2 -2 -2 -2 -3 -3 -3 -3 -3 -3 -3 -3 -3 -4 -4 -4 -4 -4 -4 -4 -4 -4
-2 -2 -2 -2 -2 -2 -2 -2 -2 -2 -2 -2 -2 -2 -2 -2 -2 -2 -2 -2 -3 -3 -3 -3 -3 -3 -3 -3 -3 -3 -3 -3 -3 -3 -4 -4 -4 -4 -4 -4 -4 -4 -4 -5
-2 -2 -2 -2 -2 -2 -2 -2 -2 -2 -2 -2 -2 -2 -2 -2 -3 -3 -3 -3 -3 -3 -3 -3 -3 -3 -3 -3 -3 -3 -3 -4 -4 -4 -4 -4 -4 -4 -4 -4 -4 -5 -5 -5
-2 -2 -2 -2 -2 -2 -2 -2 -3 -3 -3 -3 -2 -2 -2 -3 -3 -3 -3 -3 -3 -3 -3 -3 -4 -4 -4 -4 -4 -4 -4 -4 -4 -4 -4 -4 -4 -4 -4 -5 -5 -5 -5 -5
Wind_Speed
8 8 6 8 9 8 10 9 9 9 9 12 8 7 7 6 5 5 5 5 5 5 5 4 4 4 4 4 3 3 3 4 5 4 3 3 3 3 3 3 4 3 3 3
5 5 6 9 12 11 12 9 11 12 13 10 7 5 5 6 6 6 7 6 6 6 5 5 5 5 4 4 4 3 3 5 4 3 3 3 4 3 3 3 3 3 3 4
5 5 6 8 9 10 7 8 9 12 11 5 4 6 6 7 6 7 7 7 6 6 6 6 5 5 5 4 3 3 4 4 4 4 4 4 4 3 4 4 3 4 4 4
3 4 7 7 2 6 7 8 9 9 7 5 6 7 7 7 7 7 6 6 6 5 5 5 4 4 4 3 3 3 4 4 4 4 4 4 3 4 5 4 4 4 5 5
2 4 9 8 3 3 5 6 6 8 8 6 5 5 5 5 5 6 6 6 5 5 5 4 4 3 2 3 3 4 5 5 5 4 4 4 4 5 4 3 4 4 4 5
3 4 7 6 1 1 2 5 3 4 5 4 0 3 6 4 4 5 4 4 4 3 3 4 4 3 3 4 4 5 6 5 5 4 4 5 5 5 4 4 5 4 5 5
7 7 9 7 3 2 2 5 2 2 4 3 4 6 6 6 5 5 4 4 3 3 3 4 4 3 4 5 6 6 5 4 4 4 5 5 4 4 3 3 3 4 5 5
6 7 10 4 4 4 6 4 3 3 4 5 7 7 6 6 6 5 5 4 4 3 5 5 4 4 5 6 6 4 4 4 5 4 4 4 4 4 3 3 4 4 4 5
9 9 5 2 5 5 3 5 5 5 6 6 6 7 7 6 6 6 6 5 4 4 5 5 4 5 6 7 5 4 4 5 5 4 4 3 4 4 3 3 4 4 4 4
7 9 9 8 8 7 6 7 7 7 7 7 8 8 8 7 7 6 6 5 4 4 5 6 5 5 6 6 4 4 5 5 4 4 4 3 3 3 3 4 4 4 4 5
8 9 9 8 7 8 7 7 7 7 7 8 8 8 8 7 7 7 6 5 5 5 6 7 6 6 6 5 4 5 5 5 4 4 4 4 4 4 5 5 5 5 5 5
10 9 8 9 7 7 8 8 9 8 8 7 7 9 8 8 7 6 6 6 6 6 7 7 6 7 6 5 5 5 5 4 4 4 4 3 4 5 7 7 10 11 9 7
12 10 10 10 9 7 8 9 8 8 9 9 8 7 7 7 7 6 7 7 7 7 7 7 7 7 6 5 5 6 6 5 4 4 4 4 3 4 5 5 7 9 10 10
9 7 9 9 9 8 8 8 7 7 7 7 7 6 6 7 7 7 8 7 7 7 7 7 7 8 6 5 5 6 6 6 5 4 4 4 4 4 4 4 5 4 6 9
8 8 9 9 8 7 6 6 6 7 7 7 6 6 6 6 7 8 7 6 5 6 7 6 7 8 5 4 5 6 5 4 4 4 4 4 4 4 4 4 5 5 4 4
6 6 6 7 8 7 6 6 7 8 7 7 6 6 6 7 7 7 6 5 5 7 7 7 8 7 5 4 5 5 5 7 5 4 4 4 4 4 4 4 5 4 5 4
5 6 6 7 8 8 8 8 8 8 7 7 8 7 6 6 6 7 7 6 6 7 7 7 8 6 5 5 5 4 4 5 6 4 4 4 4 4 4 4 5 5 5 5
7 8 8 8 8 9 9 8 7 7 8 8 7 6 6 6 7 8 7 6 6 7 7 7 6 5 5 5 5 4 4 4 4 4 4 4 4 4 5 5 5 6 5 5
6 7 7 8 7 7 7 8 7 7 7 6 6 7 7 7 7 7 6 5 6 8 7 6 7 5 5 6 5 4 4 5 4 4 4 6 5 4 5 5 5 5 5 4
5 5 6 6 6 5 6 7 7 7 7 6 6 6 7 7 6 6 6 7 7 7 6 6 5 5 5 5 6 4 5 5 5 4 4 4 4 5 5 5 5 5 5 5
6 6 5 5 6 6 6 6 6 7 7 5 6 7 8 8 6 5 5 7 7 6 6 7 5 4 4 5 6 4 4 5 5 4 4 4 5 5 5 5 5 5 5 5
5 5 6 6 6 7 6 5 5 6 7 6 6 6 6 7 7 6 7 7 7 8 5 4 4 6 6 6 3 4 4 4 4 4 4 4 5 5 5 5 5 5 5 4
6 6 7 7 7 7 7 6 6 5 6 7 7 7 7 7 6 6 7 6 4 7 5 5 6 9 9 5 3 4 4 5 5 5 5 5 5 5 5 6 5 5 4 4
7 7 7 7 6 6 8 8 7 6 7 7 7 7 7 6 6 6 6 8 9 9 6 7 9 9 8 4 3 4 4 5 5 5 4 4 4 5 5 5 5 4 4 5
8 7 7 7 7 7 8 8 7 7 7 6 7 7 6 6 6 6 5 6 9 9 6 7 9 9 5 4 4 4 4 4 5 4 4 5 5 5 5 5 5 5 4 5
8 8 8 8 8 7 7 6 6 6 6 7 7 6 5 5 5 6 5 6 7 8 6 5 5 6 4 4 4 4 4 5 5 5 5 5 5 5 5 5 5 5 4 5
8 7 7 7 7 7 6 6 7 8 7 7 8 7 6 5 5 5 5 5 5 5 5 5 4 4 4 4 4 4 4 4 4 4 4 4 4 4 4 5 4 4 4 4
Wind_Direction
254 261 254 250 247 222 213 213 219 242 246 263 266 265 268 273 279 280 278 275 261 259 263 264 265 265 263 263 262 249 242 248 254 258 253 251 249 241 234 228 228 225 228 241
279 263 255 260 250 233 231 230 239 258 269 263 261 257 260 262 260 264 268 269 267 265 264 262 260 261 265 264 260 244 245 255 261 257 253 252 253 244 234 235 234 225 227 235
276 304 313 269 241 211 214 212 206 234 250 269 270 265 255 252 251 253 260 266 267 266 260 259 257 251 254 260 259 246 250 259 261 251 251 254 254 247 239 237 231 230 232 233
284 341 254 250 225 199 218 240 222 240 260 263 258 270 264 248 244 255 258 259 265 266 265 262 252 247 252 257 253 250 256 260 258 252 253 258 253 250 247 238 234 235 238 237
228 268 279 291 264 187 206 272 230 234 261 273 284 309 294 252 227 241 250 256 260 259 259 257 252 243 242 259 255 256 259 260 257 253 254 253 253 254 251 241 244 240 241 236
202 235 253 259 274 194 143 284 254 211 253 271 315 309 286 279 262 265 270 269 269 274 271 263 260 235 232 253 253 256 256 258 258 250 247 249 250 254 254 243 245 245 248 241
219 239 264 260 257 128 188 263 285 223 255 252 233 244 270 292 288 272 272 274 271 269 267 263 256 228 238 249 253 256 257 258 259 252 247 249 249 249 250 247 248 248 253 254
193 219 253 238 144 185 231 274 278 267 262 258 261 273 281 285 283 281 284 281 273 270 275 272 251 228 244 254 258 258 255 256 257 254 251 251 244 252 248 241 246 253 257 267
204 222 255 218 225 250 258 272 269 268 272 271 274 278 281 282 279 277 274 272 266 258 271 276 257 231 243 258 256 251 253 256 259 260 255 244 239 246 253 242 242 251 250 261
253 265 267 267 267 269 260 261 270 271 272 268 268 272 276 277 275 273 272 271 266 259 265 274 267 252 246 253 247 239 249 257 258 257 264 256 246 240 241 242 243 249 251 257
254 272 292 278 260 261 267 272 278 279 268 259 263 271 269 270 269 268 270 268 259 252 259 267 267 264 261 248 234 238 247 254 255 250 253 257 253 243 241 238 237 242 243 243
249 248 251 269 266 268 273 278 279 282 281 272 258 263 267 266 266 264 265 266 263 259 258 264 262 263 263 247 226 228 246 251 250 250 252 252 261 275 262 255 263 259 256 252
249 261 258 270 277 270 271 277 279 274 270 275 270 260 261 266 267 261 261 261 260 261 261 262 263 264 262 247 227 224 236 245 246 244 246 248 252 263 283 282 269 265 264 262
252 262 270 270 273 280 278 278 278 277 273 269 271 269 264 266 268 264 262 262 261 262 263 262 262 264 261 242 230 231 236 243 243 240 241 243 246 253 260 273 287 283 271 265
256 245 255 274 280 284 284 287 291 289 287 284 275 271 268 267 269 271 271 269 267 266 265 261 262 267 261 238 231 233 237 242 239 240 242 245 247 251 257 261 267 277 285 282
274 269 262 266 275 283 287 282 279 283 285 282 283 279 272 267 271 275 274 264 260 267 268 264 265 268 258 239 237 238 238 242 240 240 243 247 247 250 256 259 263 265 267 273
264 273 272 280 281 283 279 272 268 272 276 276 276 276 275 276 279 279 279 273 262 265 266 263 267 270 257 240 232 237 238 243 241 242 240 241 244 247 251 255 259 263 264 263
241 249 254 259 267 274 278 277 273 272 272 273 278 276 271 267 270 278 284 286 283 281 275 266 264 263 253 243 234 233 233 236 233 237 242 242 246 246 248 253 257 261 270 270
270 266 269 267 264 265 270 274 275 272 275 275 272 269 269 268 268 272 276 274 275 281 283 273 266 260 254 247 241 236 234 237 240 241 240 249 253 250 248 252 256 256 258 261
292 283 280 281 279 270 273 278 278 279 278 272 270 275 280 278 272 268 267 267 264 264 272 276 273 264 258 251 243 234 233 236 240 243 242 242 247 251 251 252 256 257 254 254
299 296 294 295 296 294 286 284 284 284 284 274 266 269 275 279 276 268 268 278 280 271 268 271 269 265 263 256 245 234 233 237 239 240 242 244 248 251 251 252 254 255 254 253
287 288 290 292 294 296 295 290 282 283 287 284 277 273 276 281 281 277 263 261 273 280 280 270 264 265 267 266 246 237 239 241 243 241 241 241 242 247 251 252 253 253 250 249
276 278 281 283 283 287 294 292 285 282 281 278 276 274 272 272 271 271 282 278 272 277 277 268 272 275 276 270 250 241 242 244 246 243 241 241 241 243 248 250 250 249 248 250
272 276 277 280 283 287 289 289 287 283 277 275 271 267 266 273 276 260 258 275 281 281 274 273 277 279 280 269 255 248 247 247 247 246 244 245 245 246 248 249 248 246 246 248
270 271 273 276 278 276 275 280 287 287 285 283 278 271 261 250 256 269 269 269 275 280 277 277 280 279 273 260 253 252 252 250 249 245 241 244 245 246 248 245 244 246 246 247
268 268 267 262 262 266 269 271 276 280 281 283 284 277 269 262 255 260 266 266 266 272 272 272 272 270 264 258 256 255 256 264 267 258 248 248 248 247 246 245 245 246 248 248
266 266 268 272 268 257 255 259 265 271 271 271 277 277 271 269 265 263 264 267 269 267 266 265 263 259 257 254 254 255 255 256 255 255 254 252 251 249 247 247 248 247 247 249
Height
1516 1513 1512 1510 1507 1508 1509 1507 1507 1497 1495 1484 1482 1482 1480 1479 1479 1478 1478 1477 1477 1476 1476 1475 1475 1474 1474 1473 1472 1471 1470 1469 1469 1468 1467 1466 1465 1465 1464 1463 1463 1462 1461 1461
1514 1509 1509 1507 1501 1501 1500 1499 1497 1493 1488 1479 1478 1478 1477 1477 1476 1475 1475 1475 1474 1474 1473 1472 1472 1471 1470 1470 1469 1468 1467 1466 1465 1464 1463 1462 1461 1461 1460 1459 1458 1458 1457 1457
1514 1510 1505 1499 1489 1490 1491 1489 1489 1488 1480 1476 1476 1475 1474 1473 1473 1472 1472 1472 1471 1470 1470 1469 1468 1468 1467 1466 1465 1464 1463 1462 1461 1460 1458 1458 1457 1456 1455 1455 1454 1453 1453 1452
1515 1511 1503 1485 1480 1481 1482 1480 1481 1478 1475 1474 1474 1472 1471 1471 1470 1469 1469 1469 1468 1467 1466 1466 1465 1464 1463 1462 1461 1460 1459 1458 1456 1455 1454 1453 1452 1451 1451 1450 1449 1449 1448 1447
1515 1513 1500 1484 1479 1479 1481 1477 1474 1474 1473 1472 1471 1470 1468 1468 1467 1467 1467 1466 1465 1464 1463 1462 1461 1460 1459 1458 1457 1455 1454 1453 1452 1451 1449 1448 1447 1447 1446 1445 1444 1444 1443 1443
1513 1510 1500 1480 1477 1475 1478 1476 1471 1471 1470 1470 1470 1471 1466 1464 1464 1463 1463 1462 1461 1460 1459 1458 1457 1456 1454 1453 1452 1451 1450 1448 1447 1446 1445 1444 1443 1442 1441 1440 1440 1439 1438 1438
1509 1507 1493 1478 1475 1476 1481 1475 1470 1469 1468 1468 1467 1466 1464 1461 1460 1460 1459 1458 1457 1456 1455 1454 1453 1451 1449 1448 1447 1446 1445 1444 1442 1441 1440 1439 1438 1437 1436 1435 1435 1434 1433 1433
1504 1504 1491 1473 1474 1476 1473 1469 1468 1467 1466 1465 1463 1461 1459 1458 1456 1455 1454 1454 1453 1451 1450 1449 1448 1446 1444 1443 1442 1441 1440 1439 1438 1437 1436 1434 1433 1433 1432 1431 1430 1429 1428 1427
1489 1482 1473 1471 1470 1469 1468 1467 1465 1464 1463 1461 1459 1457 1455 1454 1452 1451 1450 1449 1448 1446 1445 1444 1443 1441 1439 1438 1437 1436 1435 1433 1433 1432 1431 1430 1429 1428 1427 1426 1425 1424 1423 1422
1483 1474 1469 1468 1467 1466 1465 1464 1462 1460 1459 1457 1455 1453 1451 1450 1448 1447 1446 1444 1443 1441 1440 1438 1437 1436 1434 1433 1432 1431 1429 1428 1427 1426 1425 1425 1424 1423 1422 1421 1420 1419 1418 1418
1476 1470 1466 1462 1462 1462 1460 1459 1457 1455 1454 1452 1450 1448 1447 1445 1443 1442 1441 1439 1438 1437 1435 1433 1432 1431 1429 1428 1427 1426 1424 1423 1422 1422 1421 1420 1419 1418 1417 1417 1416 1415 1414 1413
1467 1463 1463 1459 1458 1457 1456 1453 1452 1450 1447 1446 1445 1443 1441 1440 1438 1437 1436 1434 1433 1431 1430 1428 1427 1425 1424 1423 1422 1421 1419 1418 1417 1417 1416 1415 1414 1414 1413 1412 1411 1410 1410 1409
1458 1457 1456 1454 1453 1452 1450 1448 1446 1444 1442 1440 1439 1437 1436 1434 1433 1432 1430 1429 1427 1426 1424 1423 1421 1420 1419 1418 1417 1415 1414 1413 1413 1412 1411 1410 1410 1409 1408 1407 1407 1406 1405 1404
1453 1452 1450 1448 1447 1446 1444 1442 1440 1438 1437 1435 1433 1432 1430 1429 1427 1426 1425 1423 1422 1420 1419 1417 1415 1414 1414 1412 1411 1410 1409 1408 1408 1407 1406 1406 1405 1404 1404 1402 1402 1401 1401 1400
1447 1447 1445 1443 1441 1440 1438 1437 1435 1433 1431 1429 1428 1426 1425 1423 1422 1421 1420 1418 1416 1415 1413 1412 1410 1409 1408 1407 1406 1405 1404 1404 1403 1402 1402 1401 1400 1400 1399 1398 1397 1396 1396 1395
1441 1440 1439 1438 1436 1434 1433 1431 1430 1428 1426 1425 1423 1422 1420 1419 1417 1415 1414 1413 1411 1409 1408 1406 1405 1404 1403 1402 1401 1400 1399 1399 1398 1398 1397 1396 1396 1395 1394 1393 1392 1391 1391 1390
1437 1435 1433 1432 1431 1429 1428 1427 1425 1423 1422 1420 1419 1417 1415 1414 1412 1410 1409 1407 1406 1404 1402 1401 1400 1398 1397 1396 1396 1395 1394 1394 1394 1393 1392 1392 1391 1390 1390 1389 1388 1387 1386 1386
1432 1431 1430 1428 1426 1425 1423 1422 1420 1419 1417 1416 1414 1412 1411 1409 1407 1405 1404 1402 1400 1399 1397 1396 1395 1393 1392 1391 1391 1390 1389 1389 1389 1388 1388 1387 1387 1386 1385 1385 1383 1383 1382 1382
1428 1427 1426 1424 1423 1421 1419 1417 1416 1414 1413 1411 1410 1408 1406 1405 1403 1401 1399 1397 1395 1393 1392 1391 1390 1388 1387 1386 1386 1385 1385 1384 1384 1383 1383 1382 1382 1381 1381 1380 1379 1378 1377 1377
1424 1423 1422 1420 1419 1417 1415 1413 1411 1410 1408 1407 1405 1403 1402 1400 1398 1397 1395 1393 1391 1389 1388 1386 1385 1383 1382 1382 1381 1380 1380 1379 1379 1378 1378 1378 1377 1376 1376 1375 1374 1373 1373 1372
1421 1420 1418 1416 1415 1413 1411 1409 1407 1405 1403 1402 1401 1399 1397 1395 1394 1392 1390 1387 1386 1385 1383 1382 1380 1379 1378 1377 1376 1375 1375 1374 1374 1374 1373 1373 1372 1372 1371 1370 1369 1369 1368 1367
1418 1416 1414 1413 1411 1409 1407 1405 1403 1401 1399 1398 1396 1394 1392 1390 1389 1387 1385 1384 1382 1381 1379 1377 1376 1375 1374 1373 1371 1371 1370 1370 1369 1369 1368 1368 1367 1367 1366 1365 1365 1364 1363 1363
1414 1413 1411 1409 1408 1405 1403 1401 1400 1398 1395 1393 1391 1390 1388 1386 1384 1383 1380 1379 1378 1376 1375 1373 1372 1371 1370 1368 1367 1366 1365 1365 1364 1364 1363 1363 1362 1362 1361 1360 1360 1359 1359 1358
1410 1408 1407 1405 1403 1401 1399 1397 1395 1393 1391 1389 1387 1385 1384 1382 1380 1378 1377 1375 1373 1372 1370 1369 1368 1366 1365 1364 1363 1362 1361 1360 1360 1359 1359 1358 1358 1357 1356 1356 1355 1355 1354 1353
1405 1403 1401 1400 1398 1396 1394 1392 1390 1388 1386 1384 1382 1380 1379 1377 1375 1373 1372 1370 1369 1367 1365 1364 1363 1362 1360 1359 1358 1357 1356 1356 1355 1355 1354 1354 1353 1353 1352 1351 1351 1350 1350 1349
1399 1397 1395 1394 1392 1390 1388 1386 1384 1382 1380 1378 1376 1375 1373 1371 1370 1368 1367 1365 1364 1362 1361 1359 1358 1357 1356 1355 1354 1353 1352 1351 1351 1350 1350 1349 1349 1348 1348 1347 1347 1346 1345 1345
1392 1390 1389 1387 1385 1384 1382 1380 1378 1376 1374 1372 1370 1368 1367 1366 1364 1363 1361 1360 1358 1357 1356 1354 1353 1352 1351 1350 1349 1349 1348 1347 1346 1346 1345 1344 1344 1343 1343 1343 1342 1341 1341 1340